This is the latest recevied weather packets stored in our database for station/object WA6ODQ-13. If no packets are shown the sender has not sent any weather packets the latest 10 day(s).
| Time | Temp. | Humidity | Pressure | Rain* | Wind** | Luminosity | Snow |
|---|---|---|---|---|---|---|---|
| 1777910829 | 14.44° C | 79% | 1012.7 hPa | 0 mm | - | 161 W/m² | - |
| 1777910525 | 13.89° C | 79% | 1012.6 hPa | 0 mm | - | 136 W/m² | - |
| 1777910222 | 13.89° C | 81% | 1012.3 hPa | 0 mm | - | 126 W/m² | - |
| 1777909919 | 13.33° C | 82% | 1012.3 hPa | 0 mm | - | 120 W/m² | - |
| 1777909616 | 13.33° C | 83% | 1012.3 hPa | 0 mm | - | 115 W/m² | - |
| 1777909313 | 13.33° C | 84% | 1012.3 hPa | 0 mm | - | 101 W/m² | - |
| 1777909011 | 12.78° C | 84% | 1012.2 hPa | 0 mm | - | 95 W/m² | - |
| 1777908709 | 12.78° C | 84% | 1012.6 hPa | 0 mm | - | 84 W/m² | - |
| 1777908405 | 12.78° C | 84% | 1012.3 hPa | 0 mm | - | 70 W/m² | - |
| 1777908102 | 12.78° C | 84% | 1012.3 hPa | 0 mm | - | 73 W/m² | - |
| 1777907798 | 12.78° C | 83% | 1012.4 hPa | 0 mm | - | 77 W/m² | - |
| 1777907493 | 12.22° C | 84% | 1012.3 hPa | 0 mm | - | 83 W/m² | - |
| 1777907190 | 12.22° C | 84% | 1012.2 hPa | 0 mm | - | 74 W/m² | - |
| 1777906887 | 12.22° C | 84% | 1012.3 hPa | 0 mm | - | 56 W/m² | - |
| 1777906585 | 12.22° C | 85% | 1012.4 hPa | 0 mm | - | 50 W/m² | - |
| 1777906280 | 11.67° C | 85% | 1012 hPa | 0 mm | - | 49 W/m² | - |
| 1777905977 | 11.67° C | 85% | 1012.4 hPa | 0 mm | - | 42 W/m² | - |
| 1777905674 | 11.67° C | 86% | 1012.4 hPa | 0 mm | - | 36 W/m² | - |
| 1777905370 | 11.67° C | 87% | 1012.4 hPa | 0 mm | - | 33 W/m² | - |
| 1777905068 | 11.67° C | 87% | 1012.3 hPa | 0 mm | - | 31 W/m² | - |
| 1777904765 | 11.67° C | 87% | 1012.2 hPa | 0 mm | - | 29 W/m² | - |
| 1777904462 | 11.67° C | 87% | 1012.1 hPa | 0 mm | - | 28 W/m² | - |
| 1777904159 | 11.67° C | 87% | 1012.3 hPa | 0 mm | - | 28 W/m² | - |
| 1777903856 | 11.67° C | 87% | 1012.6 hPa | 0 mm | - | 31 W/m² | - |
| 1777903552 | 11.67° C | 87% | 1012.2 hPa | 0 mm | - | 31 W/m² | - |
* Rain latest hour (hover to see other rain measurements)
** Current wind speed in m/s (hover to see current wind gust speed)